TimeEST,TemperatureF,Dew PointF,Humidity,Sea Level PressureIn,VisibilityMPH,Wind Direction,Wind SpeedMPH,Gust SpeedMPH,PrecipitationIn,Events,Conditions,WindDirDegrees,DateUTC
12:53 AM,30.0,19.0,64,30.03,10.0,WNW,9.2,-,N/A,,Overcast,290,2013-01-01 05:53:00
2:06 AM,30.2,17.6,60,30.02,10.0,WNW,9.2,-,N/A,,Overcast,300,2013-01-01 07:06:00
2:53 AM,28.9,18.0,64,30.04,10.0,NNW,6.9,-,N/A,,Overcast,330,2013-01-01 07:53:00
3:35 AM,28.4,15.8,59,30.03,10.0,NW,9.2,-,N/A,,Overcast,320,2013-01-01 08:35:00
4:53 AM,28.0,16.0,61,30.06,10.0,NW,6.9,-,N/A,,Overcast,320,2013-01-01 09:53:00
5:53 AM,26.1,15.1,63,30.07,10.0,NNW,8.1,-,N/A,,Mostly Cloudy,340,2013-01-01 10:53:00
6:53 AM,25.0,14.0,63,30.07,10.0,NNW,4.6,-,N/A,,Overcast,330,2013-01-01 11:53:00
7:53 AM,24.1,12.9,62,30.10,10.0,NNW,8.1,-,N/A,,Overcast,330,2013-01-01 12:53:00
8:53 AM,19.9,10.9,68,30.13,10.0,NW,6.9,-,N/A,,Partly Cloudy,320,2013-01-01 13:53:00
9:53 AM,24.1,12.9,62,30.15,10.0,NNW,8.1,-,N/A,,Overcast,340,2013-01-01 14:53:00
10:53 AM,25.0,10.9,55,30.17,10.0,NNW,8.1,-,N/A,,Overcast,340,2013-01-01 15:53:00
11:53 AM,24.1,10.0,55,30.11,10.0,NNW,13.8,-,N/A,,Mostly Cloudy,330,2013-01-01 16:53:00
12:53 PM,24.1,8.1,51,30.11,10.0,North,9.2,-,N/A,,Partly Cloudy,350,2013-01-01 17:53:00
12:56 PM,24.8,8.6,50,30.09,1.8,North,8.1,-,N/A,,Haze,350,2013-01-01 17:56:00
1:06 PM,24.8,8.6,50,30.09,10.0,NNW,6.9,-,N/A,,Partly Cloudy,340,2013-01-01 18:06:00
1:53 PM,25.0,8.1,49,30.11,10.0,Variable,4.6,-,N/A,,Clear,0,2013-01-01 18:53:00
2:53 PM,25.0,8.1,49,30.10,10.0,NNW,5.8,-,N/A,,Partly Cloudy,340,2013-01-01 19:53:00
3:53 PM,25.0,8.1,49,30.11,10.0,NW,4.6,-,N/A,,Clear,310,2013-01-01 20:53:00
5:53 PM,21.0,6.1,53,30.12,10.0,WNW,4.6,-,N/A,,Clear,300,2013-01-01 22:53:00
6:53 PM,18.0,6.1,60,30.12,10.0,Calm,Calm,-,N/A,,Clear,0,2013-01-01 23:53:00
7:53 PM,12.0,3.0,67,30.11,10.0,Calm,Calm,-,N/A,,Clear,0,2013-01-02 00:53:00
8:53 PM,12.9,3.9,67,30.12,10.0,SW,8.1,-,N/A,,Partly Cloudy,220,2013-01-02 01:53:00
9:53 PM,16.0,6.1,65,30.12,10.0,SW,6.9,-,N/A,,Overcast,220,2013-01-02 02:53:00
10:20 PM,17.6,6.8,63,30.09,10.0,SW,5.8,-,N/A,,Overcast,220,2013-01-02 03:20:00
10:53 PM,18.0,8.1,65,30.11,10.0,SW,5.8,-,N/A,,Overcast,220,2013-01-02 03:53:00
11:41 PM,15.8,6.8,68,30.08,10.0,SW,6.9,-,N/A,,Scattered Clouds,220,2013-01-02 04:41:00
11:53 PM,16.0,7.0,68,30.11,10.0,SW,6.9,-,N/A,,Partly Cloudy,220,2013-01-02 04:53:00